User: anonymous   Login
Location: Cutler
(25.6150°N, 80.3110°W)
Time: 15:22:47
(UTC-05:00)
Language:

Tiangong 2 - Orbit

View from above orbital plane
View from above orbital plane
View from above satellite
View from above satellite

Ground track
Ground track

The orbit data is extracted from the following two-line orbital elements,

1 41765U 16057A   18049.52583333  .00004276  00000-0  55191-4 0  9990
2 41765  42.7864 330.1846 0002635 173.8345 187.2117 15.60394865 81449
Epoch (UTC): 18 February 2018 12:37:12
Eccentricity: 0.0002635
inclination: 42.7864°
perigee height: 385 km
apogee height: 388 km
right ascension of ascending node: 330.1846°
argument of perigee: 173.8345°
revolutions per day: 15.60394865
mean anomaly at epoch: 187.2117°
orbit number at epoch: 8144

The dashed part of the orbit path shows where the satellite is in the earth's shadow,  

DLR